User: anonymous
Location: Livonia
(42.3680°N, 83.3530°W)
Time: 01:19:57
(UTC-04:00)
Language:

MOZ.5/SAFIR/RUBIN 5/SL-8 - Orbit

View from above orbital plane
View from above orbital plane
View from above satellite
View from above satellite

Ground track
Ground track

The orbit data is extracted from the following two-line orbital elements,

1 28898U 05043G   14107.98546248  .00000692  00000-0  15480-3 0  7914
2 28898 097.8387 300.8964 0019461 221.7364 294.5031 14.59419404451145
Epoch (UTC): 17 April 2014 23:39:03
Eccentricity: 0.0019461
inclination: 97.8387°
perigee height: 681 km
apogee height: 709 km
right ascension of ascending node: 300.8964°
argument of perigee: 221.7364°
revolutions per day: 14.59419404
mean anomaly at epoch: 294.5031°
orbit number at epoch: 45114

The dashed part of the orbit path shows where the satellite is in the earth's shadow,  

DLR